GFSNIL_sfc_dewp_195.txt.gz
Dewpoint
58 59 61 60 60 58 58 58 59 60 62 63 61 60 59 58 57 57 57 56 56 56
58 58 60 59 57 57 57 58 59 57 60 62 60 59 58 58 57 57 58 57 57 56
57 58 61 59 57 57 59 57 58 59 61 60 60 58 57 58 58 58 58 57 56 56
56 58 58 59 58 57 57 55 55 56 58 60 59 58 57 58 58 57 57 58 57 56
56 58 59 58 58 58 56 57 56 58 59 60 58 57 57 56 57 57 57 57 57 55
55 53 58 58 58 58 57 57 57 60 59 58 58 57 57 57 56 57 57 57 56 55
53 54 54 58 58 59 58 59 59 59 58 58 57 57 57 56 56 56 56 56 55 55
52 56 57 58 57 56 57 58 58 58 58 58 57 57 55 55 55 54 54 54 54 53
52 56 56 57 57 57 56 58 58 58 58 57 57 56 55 53 52 51 51 50 51 52
52 55 55 56 56 56 57 58 58 57 56 55 55 55 53 51 48 47 46 44 42 40
51 54 55 55 55 55 56 56 56 55 55 54 53 53 50 48 43 42 41 38 36 36
49 53 54 54 55 55 55 55 55 55 53 52 51 50 48 44 39 37 37 38 38 38
47 53 54 53 54 54 55 54 54 53 51 50 48 49 46 42 39 38 38 38 38 40
47 53 52 52 52 51 51 51 50 49 48 47 46 46 46 44 38 37 36 35 34 33

GFSNIL_sfc_dewp_198.txt.gz
Dewpoint
54 57 58 60 59 60 59 59 61 61 62 63 63 62 60 59 58 57 56 55 55 55
53 55 58 58 58 57 58 60 60 60 59 61 61 61 59 58 57 56 56 55 55 55
53 55 59 58 57 57 56 58 57 60 60 61 61 60 59 58 57 56 56 57 56 55
52 55 58 58 58 57 57 58 58 60 60 60 59 59 59 57 57 56 56 56 55 54
51 54 52 58 58 58 57 56 56 59 59 59 59 59 58 57 56 56 56 56 55 55
50 51 51 51 58 58 57 56 57 58 58 58 58 58 57 57 56 57 57 56 56 55
48 52 53 54 57 58 57 56 59 59 58 58 58 57 56 57 57 56 56 56 55 54
46 51 54 54 56 58 58 58 59 59 58 58 57 56 56 56 55 54 54 53 53 52
45 51 54 55 57 57 58 58 58 58 57 57 56 56 55 54 54 53 52 52 52 52
44 49 52 54 56 57 57 57 57 57 56 55 55 55 54 53 50 49 48 45 43 42
42 46 48 55 55 56 57 57 56 55 54 53 53 53 51 49 44 41 39 38 38 36
41 44 47 54 54 55 55 55 54 53 52 51 51 51 48 42 37 38 38 38 37 36
41 43 46 54 54 54 54 53 53 51 50 50 48 48 45 41 39 38 38 39 39 41
41 43 47 52 54 53 51 50 49 49 49 46 46 46 46 43 38 36 35 35 35 36

GFSNIL_sfc_dewp_201.txt.gz
Dewpoint
49 51 54 57 59 58 60 59 58 61 62 62 62 62 61 60 59 58 56 55 55 54
50 51 54 56 59 58 58 59 60 61 60 62 62 61 60 59 58 57 56 55 54 54
49 51 55 55 58 57 58 59 59 60 58 61 60 59 58 58 58 56 56 56 54 54
46 49 52 53 57 57 58 57 57 59 58 60 59 59 58 57 57 56 55 55 54 53
44 47 51 52 52 57 57 56 56 59 59 59 59 58 58 57 57 56 54 54 54 53
42 44 48 51 52 53 58 55 56 59 59 59 58 58 58 57 56 55 55 54 53 53
41 43 48 51 53 55 58 56 57 59 58 59 58 58 57 57 56 56 56 55 54 52
41 44 48 50 53 55 57 56 58 58 58 58 58 57 57 56 56 54 53 52 52 51
40 43 46 48 51 53 57 57 58 58 57 57 57 56 56 55 54 53 52 52 52 51
39 41 44 46 49 51 57 57 58 57 56 55 56 56 55 54 52 51 49 47 46 45
39 41 43 45 47 52 55 57 56 55 55 55 55 55 53 50 44 42 41 40 38 36
38 40 43 44 46 53 56 55 54 54 53 52 51 51 47 43 40 38 37 36 35 35
38 40 43 44 48 54 54 53 53 52 51 50 47 48 46 42 39 38 36 36 36 40
39 41 43 45 52 51 50 51 50 49 48 46 45 46 46 44 39 38 37 37 37 37

GFSNIL_sfc_dewp_207.txt.gz
Dewpoint
42 44 45 46 47 50 52 55 56 58 59 60 61 61 62 62 62 62 63 60 60 58
40 41 42 44 47 51 52 54 55 57 58 60 61 61 61 60 60 61 62 60 60 57
40 40 41 44 45 48 50 52 54 56 58 59 60 61 61 60 60 60 60 59 57 57
40 40 40 42 44 47 50 51 54 56 59 60 61 60 59 59 59 58 57 56 55 55
39 39 40 41 42 46 49 50 54 57 59 59 58 58 58 58 57 56 55 54 54 54
39 39 40 41 41 44 47 49 52 57 58 59 58 58 58 57 56 55 54 54 54 54
38 39 40 40 41 44 46 48 52 57 58 59 57 57 57 56 55 54 54 53 53 52
38 39 39 40 40 42 45 48 51 55 58 59 57 57 56 55 53 51 50 50 50 50
37 37 39 40 40 42 45 47 49 53 58 58 57 56 55 53 52 51 51 51 51 51
36 37 39 39 40 42 45 47 49 54 57 58 56 56 55 54 52 50 49 49 48 48
36 37 38 39 40 42 45 47 48 55 56 55 55 55 54 51 46 43 42 41 40 39
36 37 39 40 40 42 45 47 49 55 54 52 51 51 48 44 41 39 39 38 37 36
37 38 39 40 41 43 46 48 54 52 51 50 48 49 46 42 39 38 38 38 39 41
36 39 40 41 43 45 47 52 50 49 49 48 47 47 46 44 39 38 38 38 38 38